Hibbing, MN

12:33 PM CDT on September 20, 2017 (GMT -0500)
Chisholm-hibbing

Weather History for KHIB - December, 2013

Change the Weather History Date:

Sunday, December 1, 2013

  Actual Average Record
Temperature  
Mean Temperature 24 °F -  
Max Temperature 26 °F 24 °F 60 °F (1962)
Min Temperature 21 °F 6 °F -20 °F (1976)
Degree Days  
Heating Degree Days 42    
Moisture  
Dew Point 19 °F    
Average Humidity 82    
Maximum Humidity 86    
Minimum Humidity 78    
Precipitation  
Precipitation 0.00 in - - ()
Sea Level Pressure  
Sea Level Pressure 30.11 in    
Wind  
Wind Speed 2 mph (West)    
Max Wind Speed 5 mph    
Max Gust Speed -    
Visibility 9 miles    
Events Snow    
Averages and records for this station are not official NWS values.
T = Trace of Precipitation, MM = Missing Value Source: NWS Daily Summary

Daily Weather History Graph

Daily Weather History Graph

Search for Another Location

Airport or City:

Trip Planner

Search our weather history database for the weather conditions in past years. The results will help you decide how hot, cold, wet, or windy it might be!

Date:

Astronomy

Dec. 01, 2013 Rise Set
Actual Time 7:38 AM CST 4:22 PM CST
Civil Twilight 7:03 AM CST 4:57 PM CST
Nautical Twilight 6:24 AM CST 5:36 PM CST
Astronomical Twilight 5:47 AM CST 6:13 PM CST
Moon 5:51 AM CST (12/1) 3:37 PM CST (12/1)
Length of Visible Light 9h 54m
Length of Day
8h 44m
Waning Crescent, 2% of the Moon is Illuminated
Dec 1
Waning Crescent
Dec 2
New
Dec 9
First Quarter
Dec 17
Full
Dec 25
Last Quarter

Hourly Weather History & Observations

Time (CST) Temp. Windchill Dew Point Humidity Pressure Visibility Wind Dir Wind Speed Gust Speed Precip Events Conditions
12:53 AM 26.1 °F 21.9 °F 19.9 °F 78% 30.20 in 10.0 mi North 3.5 mph - N/A   Overcast
1:53 AM 26.1 °F - 19.9 °F 78% 30.20 in 10.0 mi Calm Calm - N/A   Overcast
2:53 AM 25.0 °F - 19.9 °F 81% 30.21 in 10.0 mi Calm Calm - N/A   Overcast
3:53 AM 25.0 °F - 19.9 °F 81% 30.20 in 10.0 mi Calm Calm - N/A   Overcast
4:53 AM 26.1 °F - 19.9 °F 78% 30.19 in 10.0 mi Calm Calm - N/A   Overcast
5:53 AM 26.1 °F - 19.9 °F 78% 30.20 in 10.0 mi Calm Calm - N/A   Overcast
6:53 AM 25.0 °F - 19.9 °F 81% 30.19 in 10.0 mi Calm Calm - N/A   Overcast
7:53 AM 26.1 °F - 19.9 °F 78% 30.19 in 10.0 mi Calm Calm - N/A   Overcast
8:20 AM 24.8 °F - 19.4 °F 80% 30.12 in 10.0 mi Calm Calm - N/A   Overcast
8:53 AM 26.1 °F 21.9 °F 19.9 °F 78% 30.19 in 10.0 mi Variable 3.5 mph - N/A   Overcast
9:53 AM 26.1 °F 20.5 °F 19.9 °F 78% 30.19 in 8.0 mi SW 4.6 mph - N/A   Overcast
10:53 AM 25.0 °F 19.3 °F 19.9 °F 81% 30.18 in 4.0 mi SSW 4.6 mph - 0.00 in Snow Light Snow
11:50 AM 24.8 °F 19.1 °F 21.2 °F 86% 30.08 in 7.0 mi WNW 4.6 mph - 0.00 in   Overcast
11:53 AM 25.0 °F 20.7 °F 21.0 °F 85% 30.15 in 7.0 mi WNW 3.5 mph - 0.00 in   Overcast
12:04 PM 24.8 °F 19.1 °F 21.2 °F 86% 30.08 in 8.0 mi WNW 4.6 mph - N/A   Overcast
12:53 PM 25.0 °F 20.7 °F 21.0 °F 85% 30.13 in 10.0 mi Variable 3.5 mph - N/A   Overcast
1:53 PM 25.0 °F 19.3 °F 19.9 °F 81% 30.10 in 10.0 mi West 4.6 mph - N/A   Overcast
2:27 PM 24.8 °F 20.5 °F 19.4 °F 80% 30.02 in 6.0 mi WNW 3.5 mph - N/A   Overcast
2:45 PM 24.8 °F - 21.2 °F 86% 30.02 in 8.0 mi Calm Calm - 0.00 in   Overcast
2:53 PM 24.1 °F 19.7 °F 19.9 °F 84% 30.09 in 10.0 mi West 3.5 mph - 0.00 in   Overcast
3:08 PM 24.8 °F - 19.4 °F 80% 30.01 in 9.0 mi Calm Calm - 0.00 in   Overcast
3:53 PM 24.1 °F 18.2 °F 19.0 °F 81% 30.08 in 10.0 mi West 4.6 mph - 0.00 in   Overcast
4:53 PM 23.0 °F - 18.0 °F 81% 30.07 in 10.0 mi Calm Calm - N/A   Overcast
5:53 PM 21.9 °F - 18.0 °F 85% 30.07 in 10.0 mi Calm Calm - N/A   Overcast
6:35 PM 21.2 °F - 17.6 °F 86% 29.99 in 10.0 mi Calm Calm - N/A   Overcast
6:53 PM 21.9 °F - 18.0 °F 85% 30.05 in 10.0 mi Calm Calm - N/A   Overcast
7:53 PM 21.9 °F - 18.0 °F 85% 30.04 in 10.0 mi Calm Calm - N/A   Overcast
8:53 PM 21.9 °F - 18.0 °F 85% 30.02 in 10.0 mi Calm Calm - N/A   Overcast
9:53 PM 21.9 °F - 17.1 °F 82% 30.01 in 10.0 mi Calm Calm - N/A   Overcast
10:53 PM 21.9 °F - 17.1 °F 82% 30.00 in 10.0 mi Calm Calm - N/A   Overcast
11:53 PM 21.9 °F - 17.1 °F 82% 29.99 in 10.0 mi Calm Calm - N/A   Overcast